Ari, Indiana
Current Conditions -  °F | °C
As of 1:35 AM on Thursday 27 Nov 2014 (Local Time) from KGWB Reporting Station
Overcast Overcast  
Wind Chill: 24°   Ceiling: 3100
Heat Index: 30°   Visibility: 10mi
Dew Point: 23°   Wind: 6mph
Humidity: 75%   Direction: 330°NNW
Pressure: 30.11"   Gusts: NA
Location:  41.225°N, 85.325°W
Report Text: KGWB 270635Z AUTO 33005KT 10SM OVC031 M01/M05 A3011 RMK AO2
Loading
Personal Weather Stations






























Interactive Weather Map New forecast layout! Learn more

10-Day Weather Forecast

Advertisements
Track Severe Weather on mobile